Вернуться в каталог

SKYMED 3

АктивенНаукаSSO
NORAD 33412·PAYLOAD·🇮🇹 Italy

Запущен Oct 25, 2008 с Vandenberg Space Force Base

Loading…

Ближайшие Пролёты (ближайшие 24 часа)

TLE

СвежийSource: Space-Track

Эпоха: Sep 14, 2026, 15:16 UTC

1 33412U 08054A   26257.63642796  .00002297  00000-0  15571-3 0  9997
2 33412  97.8138 117.6687 0014876 327.8355  32.1963 15.07425052970412

Отслеживайте SKYMED 3 в реальном времени с AllMySat

Download on the App Store